Time,TemperatureF,DewpointF,PressureIn,WindDirection,WindDirectionDegrees,WindSpeedMPH,WindSpeedGustMPH,Humidity,HourlyPrecipIn,Conditions,Clouds,dailyrainin,SolarRadiationWatts/m^2,SoftwareType,DateUTC
2013-07-29 10:45:00,62.0,31.0,29.99,SSW,210,16.0,18.0,31,-99.99,,,0.00,209.000000,,2013-07-29 17:45:00,
2013-07-29 10:58:00,62.0,31.0,29.99,SSW,210,16.0,18.0,31,-99.99,,,0.00,209.000000,,2013-07-29 17:58:00,
2013-07-29 11:12:00,62.0,31.0,29.99,SSW,210,16.0,18.0,31,-99.99,,,0.00,209.000000,,2013-07-29 18:12:00,
2013-07-29 11:47:00,60.0,33.0,30.01,SSW,201,20.0,30.0,36,0.00,,,0.00,217.000000,,2013-07-29 18:47:00,
2013-07-29 12:02:00,60.0,33.0,30.01,SSW,201,20.0,30.0,36,0.00,,,0.00,217.000000,,2013-07-29 19:02:00,
2013-07-29 12:13:00,60.0,33.0,30.01,SSW,201,20.0,30.0,36,0.00,,,0.00,217.000000,,2013-07-29 19:13:00,
2013-07-29 12:48:00,61.0,34.0,30.02,SSW,204,20.0,-999.0,36,0.00,,,0.00,207.000000,,2013-07-29 19:48:00,
2013-07-29 12:57:00,61.0,34.0,30.02,SSW,204,20.0,-999.0,36,0.00,,,0.00,207.000000,,2013-07-29 19:57:00,
2013-07-29 13:04:00,61.0,34.0,30.02,SSW,204,20.0,-999.0,36,0.00,,,0.00,207.000000,,2013-07-29 20:04:00,
2013-07-29 13:12:00,61.0,34.0,30.02,SSW,204,20.0,-999.0,36,0.00,,,0.00,207.000000,,2013-07-29 20:12:00,
2013-07-29 15:46:00,64.0,35.0,30.05,SSW,207,19.0,24.0,34,0.00,,,0.00,57.000000,,2013-07-29 22:46:00,
2013-07-29 15:55:00,64.0,35.0,30.05,SSW,207,19.0,24.0,34,0.00,,,0.00,57.000000,,2013-07-29 22:55:00,
2013-07-29 16:47:00,65.0,39.0,30.04,SSW,199,18.0,32.0,38,0.00,,,0.00,44.000000,,2013-07-29 23:47:00,
2013-07-29 16:55:00,65.0,39.0,30.04,SSW,199,18.0,32.0,38,0.00,,,0.00,44.000000,,2013-07-29 23:55:00,
2013-07-29 17:03:00,65.0,39.0,30.04,SSW,199,18.0,32.0,38,0.00,,,0.00,44.000000,,2013-07-30 00:03:00,
2013-07-29 17:13:00,65.0,39.0,30.04,SSW,199,18.0,32.0,38,0.00,,,0.00,44.000000,,2013-07-30 00:13:00,
2013-07-29 17:51:00,66.0,37.0,30.05,SSW,199,18.0,29.0,34,0.00,,,0.00,38.000000,,2013-07-30 00:51:00,
2013-07-29 18:04:00,66.0,37.0,30.05,SSW,199,18.0,29.0,34,0.00,,,0.00,38.000000,,2013-07-30 01:04:00,
2013-07-29 18:13:00,66.0,37.0,30.05,SSW,199,18.0,29.0,34,0.00,,,0.00,38.000000,,2013-07-30 01:13:00,
2013-07-29 18:46:00,67.0,37.0,30.03,SW,214,19.0,31.0,33,0.00,,,0.00,32.000000,,2013-07-30 01:46:00,
2013-07-29 18:58:00,67.0,37.0,30.03,SW,214,19.0,31.0,33,0.00,,,0.00,32.000000,,2013-07-30 01:58:00,
2013-07-29 19:04:00,67.0,37.0,30.03,SW,214,19.0,31.0,33,0.00,,,0.00,32.000000,,2013-07-30 02:04:00,
2013-07-29 19:46:00,64.0,43.0,30.03,SW,214,25.0,32.0,46,-99.99,,,0.00,26.000000,,2013-07-30 02:46:00,
2013-07-29 19:55:00,64.0,43.0,30.03,SW,214,25.0,32.0,46,-99.99,,,0.00,26.000000,,2013-07-30 02:55:00,
2013-07-29 20:05:00,64.0,43.0,30.03,SW,214,25.0,32.0,46,-99.99,,,0.00,26.000000,,2013-07-30 03:05:00,